Wind_Speed
14 14 14 15 16 17 18 18 19 20 20 20 20 21 21 21 21 21 22 22 22 22 23 23 24 24 23 23 23 23 22 22 20 19 18 17 17 17 17 16 14 13 12 11 10 9 9 8 8 7 7 6 6 7 7 7 7 8 8 8 8 8 8 7 6 7 6 4 5 6 5 3 3 4 6 7 7 7 6 6 5 5 4 4 4
16 15 15 16 17 17 17 18 18 19 20 20 20 20 21 21 21 21 22 22 22 22 22 23 23 23 23 23 23 23 22 22 20 19 18 18 18 18 17 16 14 13 11 11 10 9 8 7 7 6 6 5 5 6 6 6 6 7 7 7 8 8 8 6 5 6 6 4 4 5 5 4 2 1 2 3 4 5 5 5 4 4 4 4 4
18 17 17 17 18 17 18 18 18 19 19 20 20 20 20 21 21 21 21 22 22 22 22 23 23 22 22 22 23 23 22 22 20 19 18 18 18 18 18 16 14 12 11 10 10 9 8 7 6 5 5 5 5 6 6 6 6 6 7 7 7 8 8 7 5 5 5 5 4 4 4 4 3 2 2 2 3 4 4 4 4 4 4 4 4
19 18 18 18 18 18 18 18 18 19 19 20 20 20 20 20 21 21 21 21 21 21 22 22 22 22 22 22 22 22 22 22 21 19 18 18 18 18 17 16 14 12 10 10 9 8 7 6 6 5 5 5 5 6 6 6 6 7 7 7 7 7 7 6 6 4 4 4 4 4 4 3 3 3 3 3 4 4 4 4 3 3 4 4 3
20 19 19 19 18 18 18 18 18 18 19 19 19 19 20 20 20 20 21 21 21 21 21 22 22 22 22 22 22 22 22 22 21 19 18 18 18 18 17 16 14 11 10 9 8 7 7 6 5 5 5 5 5 6 6 6 6 6 7 7 7 7 7 6 5 5 4 3 3 3 3 3 3 3 4 4 4 4 4 4 3 3 3 3 3
21 20 19 19 19 19 19 19 19 19 19 19 19 19 20 20 20 20 20 20 20 21 21 22 22 21 22 22 22 22 23 22 21 19 17 17 17 17 17 15 13 11 9 8 7 7 6 6 5 5 5 5 5 5 5 6 6 7 7 7 7 7 6 5 4 4 3 3 3 3 2 3 3 4 4 4 5 5 4 4 4 3 3 3 3
22 21 20 19 19 19 19 19 19 18 18 19 19 19 20 20 19 19 19 19 20 21 22 22 22 22 22 22 22 22 23 22 21 19 17 17 17 17 16 15 13 11 8 7 7 6 6 6 5 5 5 5 5 5 5 6 7 8 8 8 8 7 6 5 3 3 2 2 2 3 2 3 4 4 4 5 5 5 4 4 3 3 3 3 2
23 22 21 20 20 19 19 19 19 18 18 19 19 19 19 19 19 18 18 19 20 21 22 22 22 22 22 23 23 23 23 22 21 19 16 16 17 17 16 14 12 10 8 7 6 5 5 5 5 5 5 5 5 5 5 6 8 9 9 8 7 6 5 4 3 2 2 2 2 3 2 3 4 5 5 5 5 5 5 4 4 3 3 3 3
22 22 22 21 20 19 19 19 18 18 18 18 19 19 19 19 18 18 18 19 19 21 22 22 23 23 23 23 23 23 22 22 21 18 16 16 17 17 16 14 12 10 8 7 6 5 5 5 5 5 5 4 4 5 5 7 9 10 9 7 7 6 5 4 2 1 2 2 2 2 3 4 5 5 6 6 6 6 5 5 5 5 4 4 3
21 21 21 21 20 20 19 19 18 18 18 18 19 19 18 18 18 18 18 19 20 21 22 23 23 23 23 23 23 22 22 22 21 18 15 15 16 17 15 13 11 9 8 7 5 4 4 5 5 5 4 4 4 4 6 8 10 10 9 7 6 6 5 4 2 1 2 2 2 2 4 5 5 5 6 6 6 6 6 6 6 5 5 4 3
20 20 20 20 19 19 19 19 18 17 17 18 18 18 18 17 17 18 19 19 20 21 23 24 24 23 23 23 22 22 21 21 19 16 15 15 16 16 15 13 11 8 7 6 5 4 4 5 5 4 4 3 3 4 6 8 10 11 8 6 6 6 5 4 3 2 1 1 2 3 5 5 5 5 6 7 7 7 7 7 7 6 5 5 4
19 19 19 19 19 19 19 18 17 17 17 18 18 18 17 17 17 18 19 20 21 22 24 24 24 23 23 22 21 21 20 20 18 15 14 15 16 15 14 13 10 8 7 7 5 4 5 5 5 4 3 3 3 4 6 7 10 10 7 6 6 6 5 4 3 3 1 1 3 5 6 5 5 6 6 7 7 7 7 7 7 7 6 6 5
18 18 18 19 19 19 19 18 17 17 18 18 18 18 17 17 17 18 19 21 22 23 24 24 24 23 23 22 21 20 19 19 16 14 14 15 15 14 13 12 10 8 8 7 6 5 5 5 4 3 3 3 3 5 6 8 10 9 6 5 5 5 5 4 3 3 1 2 5 6 6 5 5 6 6 6 7 8 7 7 7 7 7 7 6
18 18 18 19 19 19 18 18 18 18 18 18 18 17 17 17 17 19 20 22 23 23 24 24 24 23 22 22 20 19 18 17 15 13 14 15 14 14 12 11 10 9 8 7 6 5 6 6 4 3 3 3 3 5 6 7 9 8 6 4 4 4 5 5 4 3 1 1 4 5 5 5 5 5 5 6 7 7 7 7 7 7 7 7 7
18 18 18 18 19 19 18 18 18 18 18 18 18 17 16 17 18 20 21 23 23 23 24 24 24 23 22 21 20 18 17 16 14 13 14 15 14 13 12 11 10 9 8 7 6 6 7 6 5 4 3 3 3 4 5 7 8 8 7 5 3 3 5 6 5 4 3 2 2 3 4 4 5 5 5 6 6 6 6 7 7 7 7 7 7
19 18 18 18 18 19 19 19 18 18 19 18 17 17 17 18 20 21 23 23 23 23 24 24 24 23 22 21 20 18 17 15 13 13 14 15 14 13 12 11 10 10 9 8 7 7 8 7 5 4 4 3 3 4 5 7 9 9 8 5 2 3 4 5 5 5 4 2 2 2 4 4 5 5 5 5 5 6 6 6 7 7 7 7 7
20 19 18 17 18 19 19 19 19 19 18 17 17 17 19 20 22 23 23 22 23 24 24 25 24 23 23 21 19 18 16 14 13 13 13 15 15 14 13 11 10 10 9 8 8 9 9 8 6 6 5 3 2 2 4 7 9 10 8 5 2 2 3 4 5 5 3 2 2 2 3 4 5 5 5 5 5 6 6 6 7 7 7 7 7
21 19 18 18 18 19 20 20 20 19 18 17 18 19 20 22 23 23 22 22 24 25 25 24 23 23 23 21 18 17 16 14 13 13 13 15 15 15 13 12 11 10 9 8 9 9 9 8 7 7 6 4 2 2 4 6 8 9 7 4 2 2 4 5 5 4 3 3 2 3 4 4 5 5 6 6 6 6 7 7 6 6 6 6 6
21 20 18 18 19 20 20 21 20 19 19 19 20 21 22 23 23 22 22 23 24 25 24 23 23 23 22 21 18 17 16 15 13 12 14 15 15 15 13 12 11 10 9 9 10 10 10 9 8 8 8 6 4 4 4 5 6 8 6 3 2 3 4 5 5 4 4 3 3 4 4 5 6 6 7 7 7 7 7 7 7 7 6 6 6
21 20 19 19 20 21 21 21 21 20 20 21 22 23 23 23 23 22 23 24 24 24 23 22 22 23 22 20 18 17 16 14 12 13 14 15 15 14 13 11 10 9 9 9 10 11 10 9 9 9 9 7 6 5 4 3 5 7 5 2 2 3 3 3 4 4 4 3 4 4 5 6 7 7 8 8 8 8 8 7 7 7 7 7 7
22 21 20 21 21 22 22 22 21 21 22 23 24 24 23 23 22 22 23 23 23 23 22 21 22 22 21 19 17 16 15 13 13 14 15 15 15 14 12 11 10 9 9 10 11 11 10 10 10 10 10 9 7 5 3 3 3 5 5 2 2 3 3 3 2 2 3 3 4 5 6 7 8 8 8 8 8 8 7 7 7 8 7 7 7
22 21 21 21 22 23 22 22 22 23 24 24 24 24 23 22 22 22 22 23 22 22 21 21 21 21 20 19 17 15 14 13 14 14 14 15 14 13 12 11 10 10 10 11 12 12 10 10 11 11 11 10 8 6 3 2 2 4 6 4 2 2 2 3 3 3 2 3 4 5 7 8 9 9 9 9 8 8 8 8 8 8 8 8 8
21 20 21 22 23 23 22 23 24 24 25 25 24 23 23 22 22 22 22 23 21 20 20 19 20 20 19 17 15 14 14 14 14 14 14 14 14 13 12 11 11 11 11 12 13 12 11 11 12 11 11 10 9 7 4 2 3 4 6 6 4 4 4 4 5 5 4 5 5 6 7 8 9 10 10 10 10 9 9 9 9 9 9 8 8
22 20 21 24 24 23 23 24 25 25 25 24 23 23 22 21 21 22 23 23 20 19 18 18 19 19 17 15 14 14 14 15 15 14 14 14 14 13 12 11 11 12 12 13 13 12 11 12 12 12 12 10 9 7 4 3 3 4 6 7 6 6 7 5 6 6 5 6 7 7 7 8 9 10 11 11 11 11 10 10 9 9 9 9 9
23 22 23 24 24 23 24 25 26 25 24 23 23 23 22 21 21 22 23 21 19 18 18 18 17 16 15 14 14 14 14 16 16 15 14 14 14 14 13 12 12 12 13 13 13 13 12 12 13 13 12 10 8 7 5 4 3 4 6 7 7 9 9 6 6 8 7 7 7 7 7 8 9 10 11 12 12 12 11 11 11 10 10 10 11
23 24 26 24 23 25 26 27 27 25 24 24 24 23 22 21 21 23 21 21 20 18 18 18 16 15 15 14 14 14 15 16 16 14 14 14 14 13 12 11 11 12 13 13 13 13 13 13 13 13 12 9 7 7 6 5 4 4 6 7 8 9 9 8 8 11 10 7 6 6 6 8 9 10 11 12 12 12 12 12 12 11 11 11 11
25 26 26 23 24 27 27 28 28 26 24 24 25 25 24 22 22 23 22 21 20 18 19 19 16 15 15 15 14 14 15 16 16 15 14 14 14 12 10 10 11 12 13 13 13 13 13 13 13 12 11 8 7 7 7 6 4 3 5 6 7 8 9 9 10 13 14 8 7 6 6 7 8 9 10 11 11 11 12 12 12 13 12 12 12
27 26 23 25 27 28 28 29 28 27 25 24 24 25 26 24 23 23 22 21 19 18 20 19 17 14 14 15 15 14 15 15 15 15 15 14 13 11 10 10 11 12 13 13 13 13 13 13 12 11 10 8 7 8 8 6 4 2 3 5 6 7 7 9 10 11 12 9 6 6 6 7 8 9 10 10 11 11 11 12 12 13 13 13 12
26 26 23 24 28 27 28 29 28 27 27 25 25 25 25 24 22 22 20 19 18 19 19 19 18 15 14 15 14 15 15 15 15 15 14 13 13 13 12 11 11 12 12 12 13 13 13 12 11 11 9 8 7 7 8 7 5 1 2 5 6 6 6 7 8 5 7 8 5 5 6 7 7 8 9 10 10 11 11 11 12 12 12 12 11
26 26 24 24 27 27 27 28 28 27 27 26 25 25 24 22 21 20 18 16 17 18 18 19 19 16 15 14 14 15 15 15 15 15 13 11 12 13 12 11 11 11 11 12 12 12 12 11 10 10 9 8 7 7 8 8 6 1 2 5 5 5 5 5 4 3 5 8 7 7 8 8 7 7 8 9 10 10 10 10 11 11 11 11 11
26 25 23 26 29 26 26 27 27 26 25 25 25 24 23 21 20 19 18 18 18 18 17 17 18 17 15 14 14 14 15 15 15 15 13 10 10 12 12 11 11 11 12 12 12 11 11 10 10 10 9 8 8 8 8 8 6 2 2 4 4 4 4 4 3 3 4 6 8 8 8 8 8 7 7 8 9 9 9 10 10 10 10 10 10
26 28 26 28 30 25 23 24 24 24 24 24 24 23 21 19 18 18 19 20 19 17 17 17 17 16 15 14 14 14 15 17 16 15 13 12 13 14 13 12 12 12 12 12 11 11 10 10 10 10 9 9 8 8 8 7 5 3 3 3 4 4 4 4 4 4 4 6 7 7 7 7 7 7 7 8 9 9 9 9 9 9 9 9 9
25 31 32 30 31 28 24 22 22 24 25 24 24 22 18 16 17 19 19 18 18 17 17 19 17 16 15 15 14 14 16 17 17 16 14 14 15 16 14 12 13 13 12 11 10 11 11 11 11 11 10 9 8 8 9 7 4 4 4 3 3 4 4 4 4 4 5 5 5 5 6 6 6 6 7 7 8 9 8 7 7 8 8 8 8
23 28 33 32 31 30 27 24 23 24 25 24 21 19 16 16 19 18 17 16 17 18 18 19 17 16 16 16 15 15 16 17 16 15 14 14 14 15 15 12 12 12 11 11 11 12 13 12 12 11 10 9 8 9 9 7 5 5 4 2 3 3 4 4 3 3 3 3 3 4 4 5 5 6 6 7 8 8 6 5 6 7 8 8 7
23 25 28 30 31 32 32 29 24 22 23 22 20 20 19 18 19 18 16 15 16 17 18 17 16 17 18 18 16 15 16 16 15 14 13 14 14 15 14 11 12 12 10 11 11 13 14 12 11 10 10 9 9 9 8 6 5 5 4 1 2 3 3 2 2 1 1 2 3 4 4 4 5 4 5 5 5 6 5 4 5 6 7 7 6
23 23 23 25 27 28 28 26 23 20 20 21 22 21 21 19 18 18 18 16 15 16 16 16 16 16 17 18 17 16 16 16 15 13 12 12 14 15 14 11 10 11 10 10 12 14 14 12 11 11 10 9 9 10 8 6 5 5 4 1 1 2 1 2 2 2 3 3 3 4 4 4 3 3 3 3 3 3 4 4 5 6 6 6 6
22 23 21 22 25 24 21 23 24 22 21 22 21 17 16 17 17 18 17 16 17 19 18 17 16 15 16 17 17 17 17 15 15 14 12 13 14 14 13 11 10 10 10 11 13 15 13 12 11 11 9 9 9 9 8 7 6 5 4 2 1 1 0 1 2 3 3 3 4 5 4 3 3 2 2 1 1 2 2 3 4 5 6 6 7
22 24 25 25 26 26 25 27 28 25 23 23 21 15 14 17 17 17 16 17 19 20 20 18 16 16 16 16 17 17 16 14 14 14 13 13 14 13 13 13 11 10 11 12 14 15 13 11 11 10 8 8 9 9 8 7 7 6 5 3 1 1 1 1 2 3 3 3 4 4 3 2 2 1 0 1 2 2 2 2 2 3 5 6 7
21 24 27 27 27 28 29 31 31 28 24 22 21 15 14 16 15 14 16 17 18 19 19 17 16 16 15 16 17 16 14 13 13 14 13 13 14 14 13 13 13 13 13 13 15 15 13 12 11 9 9 9 8 8 8 7 7 6 5 4 2 1 1 1 2 2 3 3 3 3 1 1 2 1 1 2 4 4 3 3 2 2 3 4 5
22 25 27 28 28 28 28 29 29 26 21 19 19 16 15 16 16 15 15 16 17 19 20 18 17 16 14 15 16 15 13 13 13 13 13 13 15 14 13 14 14 14 14 14 15 15 13 13 11 10 10 9 8 7 7 7 6 6 5 4 2 1 1 1 1 1 1 2 2 1 1 2 2 2 2 3 5 4 4 3 3 3 3 3 4
24 27 29 30 29 29 30 29 27 26 23 22 22 19 16 18 20 17 15 17 19 20 21 20 18 16 15 15 15 13 12 12 11 12 12 13 14 14 15 16 15 14 15 15 15 15 14 14 12 11 11 10 8 7 7 6 6 6 5 4 3 2 2 2 2 2 0 1 2 2 3 4 3 4 4 4 5 4 4 4 4 3 3 3 4
24 27 29 29 31 33 28 21 21 21 21 22 22 21 18 18 19 18 17 19 21 21 21 19 17 16 16 16 14 13 12 12 11 11 12 13 15 16 17 18 18 17 17 16 15 15 15 14 13 12 11 9 8 8 7 7 7 7 6 5 4 3 3 3 3 2 1 1 2 3 5 5 5 5 4 5 6 4 4 5 4 4 3 4 4
27 29 30 29 33 37 29 21 21 18 13 16 18 19 18 16 17 17 18 18 18 18 18 17 16 15 15 15 14 14 13 12 11 11 12 13 15 16 17 18 19 18 18 16 16 16 15 15 14 13 11 10 9 9 8 8 8 7 7 6 5 4 4 5 4 3 2 2 3 5 6 6 6 5 5 7 6 5 5 5 5 4 4 4 4
30 31 32 30 32 37 34 31 28 20 14 15 16 16 15 15 16 16 16 16 13 12 14 15 15 15 14 14 14 14 15 14 13 13 13 14 14 16 17 18 19 17 16 16 16 16 16 15 15 13 11 10 10 10 9 9 9 8 7 6 5 5 6 6 5 4 3 2 4 6 6 6 6 6 7 7 6 6 6 6 5 5 5 4 4
31 31 30 28 27 30 33 32 26 18 16 17 16 14 13 14 14 14 14 14 13 11 12 14 16 16 14 14 14 15 15 15 15 15 15 16 17 18 18 18 19 17 16 16 16 16 15 15 14 13 12 11 10 10 10 9 9 8 8 7 6 6 7 7 6 5 4 3 4 6 6 5 5 6 7 6 6 6 5 5 5 5 5 4 4
32 31 29 28 28 29 32 32 25 21 22 22 19 17 16 15 14 13 13 13 13 13 13 13 15 16 14 13 14 15 16 16 16 16 16 16 18 20 19 18 19 17 16 16 16 15 15 15 15 14 12 11 12 12 11 10 9 9 8 7 7 7 8 7 7 6 6 4 5 6 6 6 6 6 6 6 7 6 5 5 5 5 5 5 4
30 28 27 28 30 30 33 34 28 23 24 24 22 20 19 18 15 13 12 12 13 13 14 14 14 15 14 13 14 15 16 17 17 18 17 16 18 20 19 18 19 18 16 16 16 15 16 16 16 15 13 12 13 13 11 10 9 9 8 7 7 8 8 8 7 7 6 6 6 6 6 7 6 6 7 7 7 7 6 6 6 6 6 6 5
24 23 23 24 26 27 30 33 30 24 21 21 22 21 20 18 15 13 11 12 13 13 14 15 15 14 15 15 16 16 18 18 19 19 18 17 18 20 19 18 18 18 17 16 16 16 17 18 17 16 15 14 13 13 11 10 10 9 8 8 8 8 8 8 8 8 7 6 7 7 7 6 6 7 7 7 7 7 7 7 7 7 7 6 6
21 20 20 20 22 24 26 30 29 24 21 21 21 21 19 18 19 18 16 14 14 14 15 16 16 15 15 16 18 19 19 20 20 20 19 18 19 20 19 18 17 18 18 16 16 17 18 18 17 16 16 15 14 12 12 11 10 10 9 8 8 8 8 8 7 7 7 6 7 7 7 6 6 7 7 7 7 7 7 8 7 7 7 7 7
22 19 19 19 20 22 25 28 29 25 22 21 21 20 20 20 22 23 23 20 17 16 16 17 17 16 15 16 17 19 20 21 21 21 21 20 20 21 19 18 17 18 17 16 17 18 19 18 17 17 16 16 14 13 12 12 11 11 10 10 9 8 8 7 7 7 7 7 7 8 7 6 6 7 7 7 8 8 8 8 7 8 8 8 7
25 20 20 21 21 22 23 26 27 25 21 20 21 22 22 23 23 24 25 23 20 18 18 19 20 19 17 16 17 19 20 20 20 21 22 21 20 21 20 18 18 18 17 18 19 19 19 19 18 17 17 16 15 14 14 13 13 12 12 11 10 9 8 7 7 7 7 7 7 8 7 7 7 8 8 8 9 9 8 8 8 9 9 8 8
Wind_Direction
292 292 296 299 299 296 292 288 286 284 283 283 286 289 292 295 297 301 305 308 312 316 322 326 329 329 328 326 325 326 326 325 325 324 324 326 327 327 326 326 328 333 340 344 346 349 351 353 353 352 352 352 353 356 358 359 359 353 349 348 343 340 338 332 328 321 312 302 290 287 274 248 201 157 139 136 135 132 127 125 125 116 104 95 88
296 298 299 300 297 293 290 288 287 285 283 283 286 289 292 294 298 301 305 308 312 318 324 326 328 328 326 325 324 326 326 325 324 323 324 326 327 327 328 328 331 336 341 344 346 348 350 352 351 351 354 354 357 360 2 1 359 354 352 350 345 344 342 338 336 326 319 311 284 277 278 282 287 266 132 127 126 130 129 130 125 115 107 96 89
297 300 300 297 294 292 290 289 288 286 284 284 285 288 290 293 297 301 304 308 313 320 323 325 326 325 325 324 324 325 325 323 323 323 324 326 327 328 329 331 332 337 341 344 346 346 347 350 350 352 356 356 359 360 359 355 352 350 347 348 349 353 351 345 338 325 314 299 276 264 266 273 272 255 205 160 143 142 140 138 133 120 107 95 89
296 298 297 293 292 291 289 287 285 283 282 283 284 286 289 292 296 300 303 308 315 319 322 324 324 323 323 323 323 324 323 322 322 322 324 325 328 330 331 332 333 338 343 345 345 344 346 350 350 354 358 359 360 357 355 352 349 348 349 355 4 7 2 351 339 329 312 291 271 255 243 243 233 219 203 181 162 155 151 148 141 122 106 95 91
292 293 291 290 289 289 287 284 283 282 281 282 284 285 288 291 295 298 303 309 315 318 320 322 322 322 322 322 321 321 321 321 321 322 323 325 329 331 331 332 334 338 342 345 344 343 347 352 351 354 360 1 359 356 354 354 353 353 356 4 12 14 11 360 348 338 319 294 271 255 232 222 218 209 200 186 170 164 159 155 146 131 116 106 103
288 289 288 286 286 286 285 283 283 282 281 282 284 286 288 290 293 298 304 309 313 315 318 319 320 320 319 319 319 319 319 320 321 322 323 326 329 331 331 331 333 335 341 345 344 345 351 353 352 354 356 357 355 352 356 359 359 357 358 3 8 12 12 4 352 338 320 295 266 247 218 204 206 201 194 184 172 167 164 160 155 149 133 120 118
287 288 286 284 283 283 282 282 282 281 281 282 284 286 287 290 293 298 303 307 310 313 316 317 317 316 316 316 316 317 318 319 320 321 324 327 330 331 330 330 330 332 341 347 346 348 351 353 353 353 349 349 349 350 1 6 3 359 357 357 0 5 7 5 352 334 314 286 253 232 202 191 198 194 184 176 170 168 168 165 162 161 150 141 133
285 285 284 283 282 281 280 279 279 279 279 280 282 283 285 288 293 297 301 305 308 311 314 314 313 313 313 314 315 316 316 317 319 322 325 328 330 329 328 327 326 330 343 349 346 348 352 355 354 349 345 347 349 350 359 3 0 358 357 359 1 4 6 5 356 338 314 279 241 223 197 190 195 187 178 172 170 171 173 174 173 176 173 166 157
282 282 283 283 283 281 279 278 277 277 275 276 278 280 283 286 291 296 299 303 306 309 311 310 309 310 311 312 313 314 313 315 319 323 327 329 329 327 325 323 323 331 344 346 343 346 352 356 352 346 344 348 349 351 355 357 357 357 359 5 11 16 17 11 360 326 292 265 234 215 198 197 195 185 180 176 176 178 182 185 187 190 190 184 178
280 282 282 282 281 279 277 277 276 275 273 273 274 277 280 285 290 294 297 300 303 307 307 306 306 307 308 310 310 310 311 314 319 325 328 329 326 323 320 318 322 332 339 339 339 342 350 352 346 344 345 346 345 351 355 359 1 2 4 11 21 27 26 18 3 307 255 241 229 209 205 204 195 190 187 185 184 186 191 196 198 198 197 195 191
280 281 280 279 279 277 275 275 275 273 270 270 271 275 278 283 288 291 294 298 302 304 303 303 303 305 306 306 307 307 308 313 319 325 327 326 323 319 314 315 322 331 333 332 334 336 344 346 342 345 349 338 333 347 356 2 6 7 9 19 28 28 22 13 359 327 276 241 239 222 217 211 200 197 195 194 193 194 198 200 203 203 202 202 201
281 280 278 277 276 275 275 275 274 271 269 268 270 273 277 282 285 289 293 298 301 301 300 299 300 301 302 302 303 304 306 312 318 323 323 321 318 314 310 313 320 326 326 327 329 330 338 339 340 349 352 335 330 343 353 359 2 5 10 22 28 23 18 9 354 338 315 257 248 235 227 218 207 203 202 202 201 202 202 204 207 207 206 206 207
284 280 277 275 274 274 274 274 273 269 267 267 268 272 276 281 284 288 292 296 297 296 295 296 297 298 298 298 299 301 304 309 316 319 318 317 315 310 309 312 318 321 321 321 322 324 329 330 335 347 346 337 333 337 348 354 357 3 3 9 17 18 23 26 9 350 318 243 246 241 234 223 213 209 210 211 210 210 208 208 211 211 211 211 212
285 279 275 274 273 272 272 272 270 267 266 266 268 272 277 281 284 287 290 292 292 291 292 293 294 294 294 295 296 297 301 306 311 313 314 315 312 309 309 312 315 317 317 315 313 317 322 321 326 336 337 333 332 336 349 356 357 360 356 353 5 20 32 43 35 15 28 258 253 248 240 228 220 217 218 219 218 219 218 216 216 216 217 219 221
282 277 274 274 274 273 272 270 268 266 265 266 270 274 278 280 282 284 286 287 287 288 290 292 291 291 292 291 292 293 296 302 306 306 310 312 309 307 307 309 312 312 310 306 304 311 316 314 316 324 331 333 342 355 9 5 0 357 356 355 1 34 42 48 47 37 38 360 283 255 246 235 228 224 223 223 222 225 227 225 224 224 223 225 227
280 276 275 276 276 275 273 270 268 267 267 270 274 275 276 278 280 281 283 283 284 286 289 290 289 290 289 288 288 289 292 298 298 299 306 309 307 304 303 305 308 306 303 297 297 308 309 306 310 318 326 339 353 20 25 7 360 355 356 359 10 53 49 47 44 39 36 2 308 269 251 242 236 231 228 227 229 229 229 230 228 229 229 229 229
282 279 280 279 276 273 271 271 270 270 272 275 275 273 274 276 278 280 281 282 282 284 286 287 288 288 286 284 284 285 289 291 290 295 302 304 304 300 300 303 304 300 295 290 295 304 303 301 307 312 317 332 339 14 12 357 354 351 352 1 32 66 46 37 33 30 23 350 312 278 257 249 244 239 238 239 238 232 229 229 230 231 232 233 233
286 285 283 279 274 270 270 271 272 273 275 276 273 271 273 274 277 278 279 278 278 281 283 285 286 286 283 280 280 282 284 283 285 292 297 299 300 297 299 302 298 293 287 287 296 300 297 299 304 306 310 316 307 329 343 344 348 345 348 6 45 52 28 19 20 23 11 342 315 282 263 255 250 247 247 247 244 237 233 232 232 234 235 236 236
289 286 281 275 271 270 271 272 273 275 275 273 271 270 272 274 276 276 276 275 276 279 281 282 284 282 279 277 277 278 278 280 285 289 291 296 297 296 298 297 291 286 281 286 294 294 294 297 301 305 306 302 301 318 324 330 343 342 345 14 43 19 8 8 10 9 360 337 314 287 268 259 256 255 255 255 252 246 243 240 238 236 236 237 237
289 284 277 272 270 271 272 273 274 274 274 272 270 270 272 274 275 275 275 275 277 280 279 280 281 279 277 274 273 273 275 280 284 284 288 294 295 294 293 288 284 279 277 282 287 288 289 293 299 303 303 300 304 318 324 331 344 341 338 11 30 359 357 9 10 1 354 333 304 286 273 266 264 264 263 261 259 254 250 247 245 241 240 239 237
286 280 274 271 270 271 270 270 271 271 270 269 269 270 273 274 275 274 274 275 278 279 278 278 279 278 275 271 270 271 275 279 280 281 286 290 291 291 288 281 279 274 272 277 280 281 284 289 296 299 300 301 303 306 314 336 345 329 314 312 360 343 350 7 357 345 346 325 294 279 272 268 268 268 266 263 259 256 254 254 255 253 248 243 241
276 270 269 270 269 268 267 265 265 266 266 267 269 271 273 273 272 271 272 275 277 276 275 276 279 278 273 269 268 270 273 276 278 280 283 285 286 287 284 280 275 268 266 271 273 275 279 286 292 295 297 300 302 298 304 338 335 301 290 283 282 282 311 332 299 291 301 289 274 266 265 265 264 263 262 260 257 255 254 257 260 258 253 248 246
266 265 267 266 266 264 260 259 261 263 265 266 268 269 270 269 268 268 270 273 274 270 271 276 279 277 271 266 265 266 271 275 276 277 280 281 282 284 283 277 269 262 262 266 269 272 276 284 289 292 295 300 300 297 310 339 322 291 281 279 268 265 287 293 277 275 276 276 270 260 257 259 262 261 259 256 254 253 252 254 257 258 256 253 251
263 262 263 259 258 257 255 258 261 264 265 265 265 266 266 267 267 267 268 270 266 262 267 274 276 275 269 262 260 264 270 274 274 273 276 278 279 281 279 270 262 258 260 264 267 271 276 282 286 289 293 298 296 296 314 326 304 286 277 279 277 277 284 279 264 264 267 271 272 269 263 260 262 261 258 255 251 251 250 252 254 256 257 258 257
263 255 251 252 253 252 253 258 262 263 263 261 262 264 266 267 267 267 268 263 255 256 262 267 272 272 263 255 255 262 270 273 273 271 274 278 279 279 274 263 255 256 259 263 267 272 277 281 285 290 293 293 292 299 310 305 290 280 273 273 276 281 287 281 256 248 248 256 262 265 267 266 265 261 257 254 250 248 248 249 250 250 252 254 256
263 253 244 247 249 250 254 258 261 261 261 262 264 265 267 268 268 269 267 259 255 259 260 261 266 263 253 250 252 261 270 274 273 272 275 278 279 275 265 252 248 253 258 262 267 272 277 282 287 290 289 286 288 294 298 299 297 289 277 272 274 281 288 287 263 242 235 252 278 271 269 270 269 264 257 252 248 244 243 243 243 243 243 246 250
255 251 245 244 245 249 256 260 262 262 263 264 265 265 266 267 268 267 265 264 264 260 256 258 261 254 245 247 252 261 269 272 271 272 274 275 276 266 247 238 244 253 258 261 266 272 277 283 285 283 282 281 283 286 291 298 303 304 292 286 284 281 287 288 275 256 244 258 299 289 281 278 272 267 260 255 250 245 242 240 239 238 238 241 243
248 247 246 243 241 247 255 259 260 261 260 260 263 265 266 265 264 265 265 268 264 254 252 255 257 252 243 242 249 260 265 268 270 271 270 267 265 253 238 242 250 254 258 262 268 272 275 278 279 276 274 273 275 283 288 291 291 312 311 297 283 275 286 292 294 279 250 250 281 285 289 290 282 275 266 260 255 251 247 244 242 240 238 239 240
255 251 251 245 240 245 251 256 259 259 259 258 261 262 261 260 260 262 265 265 256 250 252 252 253 253 245 239 244 256 262 266 269 270 268 261 254 245 243 252 254 254 258 263 266 269 270 271 272 269 264 263 270 278 281 282 282 309 299 275 273 279 292 294 304 295 229 230 260 282 293 292 287 281 272 267 262 258 254 250 247 244 242 241 240
255 255 257 250 245 251 254 255 257 259 261 260 259 258 256 256 257 259 259 255 247 245 250 249 247 247 244 240 241 250 260 265 266 268 269 261 246 237 243 251 251 251 255 258 260 263 265 266 264 259 253 256 266 273 275 280 285 302 240 254 273 291 294 291 301 291 233 238 262 285 291 286 285 281 274 269 266 264 260 255 250 245 242 239 237
251 255 256 244 243 254 258 256 255 255 258 259 257 255 255 255 253 254 254 250 243 241 247 247 242 239 243 246 243 248 256 261 261 262 266 262 244 236 244 249 246 249 251 252 255 258 260 259 255 249 246 253 261 266 270 275 281 288 239 249 271 285 298 305 302 293 261 252 266 282 287 284 285 284 275 269 266 264 257 251 246 242 239 236 236
255 258 259 245 241 249 251 252 255 253 252 251 252 253 255 256 253 252 254 253 249 245 247 246 242 240 247 251 249 249 254 260 260 258 258 261 252 240 242 247 245 247 247 248 251 253 252 246 244 242 243 251 255 260 263 261 264 278 274 270 271 268 294 314 305 295 281 264 262 273 284 286 286 283 278 270 264 259 253 244 236 235 234 233 235
260 259 260 254 251 255 256 256 259 258 254 252 254 256 255 253 252 252 254 254 251 248 244 245 245 243 248 252 249 249 255 261 261 257 253 256 251 235 232 242 246 245 244 246 246 244 238 230 234 240 243 247 248 252 254 248 249 270 277 269 252 253 281 304 309 302 292 276 260 267 283 287 287 287 282 272 262 254 250 241 228 226 226 228 231
271 264 259 256 256 262 268 267 261 257 258 260 261 260 253 246 247 248 247 246 247 245 239 241 245 243 245 247 245 249 257 260 258 255 250 249 244 227 225 239 247 247 245 243 240 237 230 225 231 240 245 244 238 243 248 246 247 257 259 241 225 247 276 292 308 309 298 288 279 283 289 291 293 292 282 273 266 254 246 237 225 222 222 224 227
285 277 264 258 257 262 269 270 262 258 263 264 261 260 254 243 239 236 236 240 244 242 237 242 247 245 247 246 245 249 253 254 251 249 246 242 233 222 226 243 249 248 246 242 240 236 230 228 231 236 241 239 233 237 243 243 242 248 253 236 210 242 275 295 315 338 334 324 312 306 306 305 297 286 274 270 270 258 244 234 227 222 220 222 225
288 285 272 261 258 261 272 279 274 269 271 265 258 255 248 241 237 234 235 239 241 237 237 242 244 245 250 248 247 248 246 246 245 243 243 236 224 221 231 244 247 247 246 243 242 238 235 232 231 230 231 230 228 228 229 223 223 236 244 225 180 219 283 312 311 333 341 344 333 319 319 323 309 287 276 267 259 251 241 237 232 227 223 219 218
283 281 271 262 261 262 276 294 287 272 268 263 256 251 246 246 242 238 239 240 239 238 239 238 236 244 251 250 250 247 244 240 237 238 240 232 223 226 234 237 245 248 243 238 237 238 237 236 235 231 223 219 218 218 216 211 211 226 234 229 184 180 281 298 297 321 339 346 341 327 324 334 336 304 268 238 190 194 215 228 232 234 228 220 215
270 273 270 266 267 265 275 294 290 275 269 264 259 255 253 251 241 238 242 239 237 240 240 237 238 246 249 250 250 247 243 236 232 235 236 227 222 230 234 232 244 249 235 228 232 236 236 237 241 238 223 216 215 211 208 207 211 221 228 233 220 171 235 281 305 331 345 349 347 337 327 347 20 29 207 140 134 140 153 171 206 233 229 220 215
260 267 270 269 267 265 274 285 284 277 272 264 259 253 248 249 241 238 241 240 240 243 246 244 242 246 248 250 245 240 237 228 226 232 234 227 222 229 231 230 241 245 230 220 226 233 234 235 238 236 224 220 219 208 200 201 208 219 227 236 236 212 248 292 322 337 349 353 2 357 356 87 88 102 106 117 129 128 129 139 154 178 199 205 208
258 262 266 269 268 266 271 275 275 275 274 266 261 256 251 248 246 244 244 247 247 247 249 247 246 248 250 247 237 230 229 223 223 228 231 230 226 230 233 230 236 240 229 217 221 228 230 232 232 229 225 221 218 209 200 199 207 221 232 237 237 227 236 262 280 302 344 2 22 31 133 131 116 115 103 115 128 123 118 130 137 139 144 165 182
257 257 261 266 267 267 267 265 267 268 269 269 265 265 262 247 246 250 249 248 246 245 246 246 248 250 248 242 232 227 224 221 223 225 227 229 230 233 233 228 228 231 227 218 218 223 226 229 228 224 224 222 216 212 208 204 208 221 230 235 237 224 222 234 236 233 237 39 52 101 145 148 133 119 111 122 132 121 114 127 137 144 150 156 166
255 257 262 264 265 269 266 261 274 273 263 266 265 266 264 250 249 250 245 244 246 245 244 245 247 247 244 240 234 229 226 226 227 226 229 233 232 232 232 228 224 223 224 220 218 220 222 227 230 226 224 226 223 217 214 212 215 220 224 232 233 221 223 227 226 223 190 108 97 118 137 146 139 127 129 139 142 132 124 133 144 153 154 154 163
258 259 263 261 260 266 261 256 286 297 276 270 272 270 263 253 253 250 245 246 248 247 242 242 244 241 238 237 236 235 237 238 233 228 234 236 232 232 235 233 227 222 222 221 219 220 221 224 231 230 226 227 225 220 218 216 218 220 221 228 228 218 217 216 220 227 204 131 122 131 132 134 133 133 145 149 148 145 141 146 154 156 154 154 161
259 257 260 261 260 266 266 268 286 299 291 285 284 278 266 258 258 255 252 252 250 245 239 240 242 238 234 235 237 237 239 240 234 230 232 233 232 234 236 233 228 226 226 225 222 222 224 224 228 231 229 230 228 223 221 220 220 222 222 223 222 219 215 217 226 221 198 159 145 150 141 132 131 138 149 151 152 154 152 156 161 162 162 162 163
262 258 260 265 267 273 280 284 287 287 287 293 291 283 275 271 267 260 258 257 251 238 233 239 242 240 237 237 239 237 238 238 236 235 231 229 230 232 233 228 222 220 222 227 226 226 229 228 229 231 232 233 231 226 225 224 225 227 226 220 218 222 222 225 227 207 195 194 172 164 158 151 145 149 156 160 162 164 163 164 167 168 169 172 172
265 263 262 266 272 277 283 287 289 286 287 292 293 286 283 281 273 266 261 251 241 230 227 234 236 239 239 241 244 241 240 239 240 241 235 230 229 231 234 229 223 219 217 222 226 227 230 231 230 230 230 229 228 227 225 224 226 228 228 221 217 225 230 231 226 211 206 211 199 186 181 179 177 173 175 178 178 180 178 173 175 176 178 183 188
270 273 272 272 273 276 280 285 290 294 296 297 292 285 287 285 273 266 261 247 239 230 227 231 233 238 240 244 247 243 242 242 243 244 242 236 229 229 233 230 228 228 221 218 221 224 227 229 229 228 225 222 223 225 224 222 224 227 229 225 223 229 233 233 230 225 217 210 212 216 210 200 193 187 186 190 194 194 187 179 181 186 189 195 201
281 285 284 279 278 279 280 284 288 291 296 299 293 286 286 283 271 266 260 249 245 237 232 232 232 237 243 247 248 244 244 246 246 246 248 242 230 226 227 226 228 230 226 219 217 221 224 225 227 227 224 219 219 223 223 220 222 226 228 228 229 232 232 232 234 233 224 213 215 221 224 219 204 196 196 200 203 200 193 192 195 198 203 208 211
286 286 287 285 285 286 283 284 287 286 285 289 292 290 285 278 275 273 265 254 249 243 237 232 228 231 242 249 249 245 244 246 246 246 249 245 234 227 224 222 223 225 225 221 215 219 223 225 226 225 224 222 220 220 220 219 221 226 227 227 229 230 229 230 230 228 222 218 219 219 224 227 214 206 205 206 209 207 202 205 208 209 216 220 220
287 284 288 287 285 284 282 281 283 283 282 283 284 283 280 276 274 270 264 257 253 249 244 238 231 230 238 245 244 239 240 244 246 246 247 245 236 230 225 220 218 220 224 220 216 219 223 226 227 225 224 225 224 220 218 217 218 223 226 226 227 226 225 226 221 219 220 221 218 214 218 223 217 216 218 216 217 217 213 215 220 220 221 224 224
290 286 283 281 277 274 275 276 279 280 279 280 278 276 276 274 268 264 261 256 252 250 250 249 244 238 236 238 237 233 235 240 244 246 245 241 233 228 227 222 217 218 221 220 217 219 222 225 228 227 225 225 225 222 219 217 216 220 224 225 227 224 220 217 209 209 217 221 216 207 207 213 216 222 228 227 227 228 226 224 228 227 224 222 224
Height
5882 5881 5880 5880 5879 5879 5878 5878 5878 5877 5877 5876 5876 5875 5875 5874 5874 5873 5872 5872 5871 5870 5870 5869 5868 5867 5866 5864 5864 5863 5862 5861 5860 5860 5859 5858 5857 5856 5855 5854 5853 5853 5852 5851 5851 5850 5850 5849 5848 5848 5847 5847 5846 5845 5845 5844 5844 5843 5843 5842 5841 5841 5840 5840 5840 5839 5837 5836 5836 5835 5834 5834 5834 5834 5835 5835 5835 5835 5835 5835 5835 5835 5835 5835 5834
5880 5880 5879 5878 5878 5877 5877 5877 5876 5876 5876 5875 5875 5874 5874 5873 5873 5872 5871 5871 5870 5870 5869 5868 5867 5866 5865 5864 5863 5862 5862 5861 5860 5859 5858 5857 5856 5856 5855 5854 5853 5852 5852 5851 5851 5850 5849 5849 5848 5848 5847 5847 5846 5845 5845 5844 5844 5843 5842 5841 5841 5840 5840 5840 5839 5838 5837 5836 5836 5836 5835 5834 5833 5833 5833 5834 5834 5834 5835 5835 5835 5835 5835 5835 5835
5878 5878 5877 5877 5876 5876 5876 5876 5875 5875 5875 5874 5874 5873 5873 5872 5871 5871 5870 5870 5869 5869 5868 5867 5866 5865 5864 5863 5862 5862 5861 5860 5859 5858 5857 5857 5856 5855 5854 5854 5853 5852 5852 5851 5851 5850 5849 5848 5848 5847 5847 5846 5846 5845 5845 5844 5843 5843 5842 5842 5841 5840 5840 5839 5839 5838 5838 5837 5837 5836 5835 5834 5834 5833 5833 5834 5834 5834 5835 5835 5835 5836 5836 5835 5835
5876 5876 5876 5875 5875 5875 5875 5875 5874 5874 5873 5873 5873 5872 5871 5871 5870 5870 5869 5869 5868 5868 5867 5866 5865 5864 5863 5862 5861 5861 5860 5859 5858 5857 5856 5856 5855 5855 5854 5853 5853 5852 5851 5851 5850 5849 5849 5848 5848 5847 5847 5846 5846 5845 5844 5844 5843 5843 5842 5842 5841 5840 5840 5839 5839 5839 5838 5837 5837 5836 5836 5835 5835 5835 5835 5835 5835 5835 5835 5835 5836 5836 5836 5836 5836
5875 5875 5874 5874 5874 5874 5873 5873 5873 5873 5872 5872 5871 5871 5870 5870 5869 5869 5868 5868 5867 5867 5866 5865 5864 5863 5862 5862 5861 5860 5859 5858 5857 5856 5856 5855 5855 5854 5853 5853 5852 5852 5851 5850 5850 5849 5849 5848 5847 5847 5847 5846 5845 5845 5844 5843 5843 5842 5842 5842 5841 5841 5840 5840 5839 5839 5838 5837 5837 5836 5836 5836 5835 5835 5835 5835 5835 5835 5835 5836 5836 5836 5836 5836 5836
5873 5873 5873 5873 5873 5872 5872 5872 5871 5871 5871 5870 5870 5870 5869 5869 5868 5868 5867 5866 5866 5865 5865 5864 5863 5862 5862 5861 5860 5859 5858 5857 5856 5856 5855 5855 5854 5853 5853 5852 5851 5851 5851 5850 5850 5849 5848 5848 5847 5847 5846 5846 5845 5845 5844 5843 5843 5842 5842 5841 5841 5840 5840 5839 5839 5838 5838 5837 5837 5836 5836 5836 5836 5836 5836 5836 5836 5836 5836 5836 5836 5836 5836 5836 5836
5871 5871 5871 5871 5871 5871 5870 5870 5870 5870 5869 5869 5869 5868 5868 5867 5867 5867 5866 5865 5865 5864 5864 5863 5862 5861 5861 5860 5859 5858 5857 5856 5855 5855 5855 5854 5853 5853 5852 5851 5851 5850 5850 5850 5849 5849 5848 5847 5847 5846 5846 5845 5845 5844 5844 5844 5843 5842 5841 5841 5841 5840 5839 5839 5838 5838 5838 5837 5837 5836 5836 5836 5836 5836 5836 5836 5836 5836 5836 5836 5836 5836 5836 5836 5836
5868 5868 5868 5869 5869 5869 5869 5868 5868 5868 5868 5867 5867 5866 5866 5866 5866 5865 5865 5864 5864 5863 5862 5862 5861 5860 5859 5859 5858 5857 5856 5855 5855 5855 5854 5853 5853 5852 5851 5851 5850 5850 5850 5849 5849 5848 5848 5847 5846 5846 5845 5845 5844 5844 5844 5844 5843 5842 5841 5840 5840 5839 5839 5838 5838 5838 5837 5837 5837 5836 5836 5836 5836 5836 5836 5836 5836 5836 5836 5836 5836 5836 5836 5836 5836
5867 5867 5867 5867 5867 5867 5867 5866 5867 5866 5866 5866 5865 5865 5865 5864 5864 5864 5863 5863 5863 5862 5861 5861 5860 5859 5858 5857 5857 5856 5855 5855 5854 5854 5853 5853 5852 5851 5851 5850 5850 5849 5849 5849 5848 5848 5847 5846 5846 5845 5845 5844 5844 5844 5844 5843 5843 5842 5841 5840 5839 5839 5838 5838 5837 5837 5837 5837 5836 5836 5836 5836 5836 5836 5835 5835 5835 5835 5835 5835 5835 5835 5836 5836 5836
5865 5865 5865 5865 5865 5865 5865 5865 5865 5865 5864 5864 5863 5863 5863 5863 5863 5862 5862 5862 5862 5861 5860 5860 5859 5858 5857 5856 5856 5855 5854 5854 5854 5853 5853 5852 5851 5850 5850 5849 5849 5849 5849 5848 5848 5847 5846 5846 5845 5845 5844 5844 5843 5843 5843 5842 5842 5841 5840 5840 5839 5839 5838 5837 5837 5836 5836 5836 5836 5836 5836 5836 5835 5835 5835 5835 5835 5835 5835 5835 5835 5835 5835 5835 5835
5863 5864 5864 5863 5863 5863 5863 5863 5863 5863 5862 5862 5862 5862 5861 5861 5861 5861 5861 5861 5860 5860 5859 5858 5858 5857 5856 5855 5854 5854 5853 5853 5853 5852 5852 5851 5850 5850 5849 5848 5848 5848 5848 5847 5847 5846 5846 5845 5845 5844 5844 5843 5843 5843 5842 5842 5841 5841 5840 5839 5839 5838 5837 5837 5836 5836 5836 5836 5835 5835 5835 5835 5835 5835 5835 5835 5835 5835 5835 5835 5835 5835 5835 5835 5835
5862 5862 5862 5862 5862 5862 5861 5861 5861 5861 5861 5860 5860 5860 5860 5860 5860 5860 5860 5860 5859 5859 5858 5857 5856 5855 5855 5854 5853 5852 5852 5852 5852 5851 5851 5850 5849 5848 5848 5848 5848 5847 5847 5846 5846 5846 5845 5844 5844 5844 5843 5843 5843 5843 5842 5842 5841 5840 5839 5839 5838 5837 5837 5836 5836 5836 5835 5835 5835 5835 5835 5835 5835 5835 5835 5834 5834 5834 5834 5834 5835 5835 5835 5835 5835
5860 5860 5860 5860 5860 5860 5860 5860 5859 5859 5859 5858 5858 5858 5858 5859 5859 5859 5859 5858 5858 5857 5856 5856 5854 5854 5853 5852 5851 5851 5851 5851 5850 5850 5850 5849 5848 5847 5847 5847 5847 5846 5846 5846 5845 5845 5844 5844 5843 5843 5843 5843 5843 5842 5842 5841 5841 5840 5839 5838 5838 5837 5837 5836 5836 5836 5835 5835 5835 5835 5835 5835 5835 5835 5835 5834 5834 5834 5834 5834 5834 5835 5835 5835 5835
5858 5858 5858 5858 5858 5858 5858 5858 5857 5857 5857 5857 5857 5857 5857 5857 5858 5857 5857 5857 5856 5855 5855 5854 5853 5852 5851 5850 5850 5850 5849 5849 5849 5849 5848 5848 5847 5846 5846 5846 5846 5846 5845 5845 5844 5844 5843 5842 5842 5842 5842 5842 5842 5841 5841 5841 5840 5839 5839 5838 5837 5837 5837 5836 5836 5836 5835 5835 5835 5835 5835 5835 5834 5834 5834 5834 5835 5835 5834 5834 5834 5835 5835 5835 5835
5856 5856 5856 5856 5856 5856 5856 5856 5856 5855 5855 5855 5855 5855 5855 5856 5856 5856 5855 5855 5854 5853 5853 5852 5851 5850 5850 5849 5848 5848 5848 5848 5848 5847 5847 5847 5846 5845 5845 5845 5845 5845 5844 5844 5843 5843 5842 5841 5841 5841 5841 5841 5841 5841 5841 5840 5840 5839 5838 5837 5837 5836 5836 5836 5836 5835 5835 5835 5835 5834 5834 5834 5834 5834 5834 5834 5835 5835 5834 5834 5834 5834 5834 5834 5834
5854 5854 5855 5855 5855 5854 5854 5854 5854 5854 5853 5853 5853 5854 5854 5854 5854 5854 5853 5852 5852 5852 5851 5850 5849 5849 5848 5847 5847 5846 5846 5847 5846 5846 5846 5845 5845 5844 5844 5844 5844 5844 5843 5843 5843 5842 5841 5841 5841 5840 5840 5840 5840 5840 5840 5840 5839 5837 5837 5836 5836 5836 5836 5835 5835 5834 5834 5834 5834 5834 5834 5834 5834 5834 5834 5835 5834 5834 5834 5834 5834 5834 5834 5834 5834
5851 5852 5853 5853 5853 5852 5852 5852 5852 5851 5851 5851 5851 5852 5852 5852 5852 5851 5851 5850 5850 5850 5849 5848 5847 5847 5846 5845 5845 5845 5845 5845 5845 5844 5844 5844 5844 5843 5843 5843 5843 5843 5842 5842 5842 5841 5840 5840 5839 5839 5839 5839 5839 5840 5840 5839 5838 5836 5836 5836 5836 5835 5835 5835 5834 5834 5834 5834 5834 5834 5834 5834 5834 5834 5834 5834 5834 5834 5834 5834 5834 5834 5834 5834 5834
5849 5850 5850 5850 5850 5850 5850 5850 5849 5849 5849 5850 5850 5850 5850 5850 5849 5849 5849 5848 5848 5848 5847 5846 5846 5845 5844 5844 5843 5843 5843 5843 5843 5843 5843 5843 5842 5842 5842 5842 5842 5842 5841 5841 5841 5840 5839 5839 5838 5838 5838 5838 5839 5839 5839 5839 5838 5836 5835 5835 5835 5835 5835 5834 5834 5833 5833 5833 5833 5833 5833 5833 5833 5834 5834 5834 5833 5833 5833 5833 5833 5833 5833 5833 5833
5847 5848 5848 5848 5848 5848 5848 5847 5847 5847 5848 5848 5848 5848 5848 5847 5847 5847 5847 5846 5846 5845 5845 5844 5844 5843 5842 5842 5842 5841 5841 5842 5842 5842 5842 5841 5841 5841 5841 5841 5841 5841 5840 5840 5839 5839 5838 5838 5837 5837 5837 5837 5838 5838 5839 5839 5837 5835 5834 5835 5835 5835 5834 5834 5833 5833 5833 5833 5833 5833 5833 5833 5833 5833 5833 5833 5833 5833 5833 5833 5833 5833 5833 5833 5833
5846 5846 5846 5846 5846 5846 5845 5845 5845 5846 5846 5846 5846 5846 5845 5845 5845 5845 5844 5844 5843 5843 5842 5842 5842 5841 5840 5840 5840 5840 5840 5840 5841 5840 5840 5840 5839 5839 5840 5840 5839 5839 5839 5839 5838 5838 5837 5837 5836 5836 5836 5836 5836 5837 5838 5838 5837 5835 5834 5835 5835 5835 5834 5833 5833 5832 5832 5832 5832 5832 5832 5832 5832 5832 5832 5832 5832 5832 5832 5832 5832 5832 5832 5832 5832
5844 5844 5844 5844 5844 5843 5843 5843 5844 5844 5844 5843 5843 5843 5843 5843 5843 5842 5842 5841 5841 5841 5840 5840 5839 5839 5839 5838 5838 5838 5839 5839 5839 5839 5838 5838 5838 5838 5838 5838 5838 5838 5838 5837 5837 5836 5836 5835 5835 5835 5835 5835 5836 5837 5838 5838 5837 5835 5834 5834 5835 5834 5834 5833 5832 5832 5832 5832 5831 5831 5831 5831 5831 5831 5831 5831 5831 5831 5831 5831 5832 5832 5832 5832 5832
5841 5841 5841 5841 5841 5840 5841 5841 5841 5841 5840 5840 5840 5840 5840 5840 5839 5839 5839 5839 5838 5838 5838 5838 5837 5837 5837 5837 5837 5837 5838 5838 5837 5837 5837 5837 5836 5837 5837 5837 5837 5837 5837 5836 5835 5835 5835 5834 5834 5834 5834 5834 5835 5835 5836 5837 5837 5835 5833 5833 5834 5834 5833 5833 5832 5832 5832 5831 5830 5830 5830 5830 5830 5830 5830 5830 5830 5830 5830 5830 5831 5831 5831 5831 5831
5838 5839 5839 5838 5838 5839 5839 5839 5838 5838 5838 5838 5838 5837 5837 5836 5836 5836 5836 5836 5836 5836 5836 5835 5835 5835 5835 5835 5836 5836 5836 5836 5836 5836 5835 5835 5835 5835 5835 5836 5836 5836 5836 5835 5834 5834 5834 5833 5833 5833 5833 5833 5833 5834 5835 5836 5836 5834 5832 5832 5833 5833 5832 5832 5831 5831 5831 5831 5830 5830 5829 5829 5829 5829 5829 5829 5829 5829 5829 5829 5830 5830 5830 5830 5830
5837 5837 5836 5835 5836 5837 5837 5836 5836 5836 5835 5835 5835 5834 5834 5834 5833 5833 5833 5833 5833 5833 5833 5833 5832 5832 5833 5834 5834 5834 5835 5835 5834 5834 5834 5833 5833 5833 5834 5835 5835 5835 5834 5834 5833 5833 5833 5832 5832 5832 5832 5832 5832 5832 5834 5835 5835 5834 5832 5831 5831 5831 5831 5831 5831 5830 5830 5830 5830 5829 5829 5828 5829 5829 5829 5829 5828 5828 5828 5828 5828 5828 5829 5829 5829
5834 5834 5833 5833 5835 5835 5834 5834 5834 5833 5833 5833 5832 5831 5831 5831 5831 5830 5830 5830 5830 5830 5830 5830 5830 5830 5831 5832 5832 5833 5833 5833 5833 5833 5832 5831 5831 5831 5832 5833 5833 5833 5833 5832 5832 5832 5832 5831 5831 5830 5831 5831 5831 5831 5833 5834 5834 5833 5832 5830 5830 5830 5830 5829 5829 5829 5829 5829 5829 5828 5828 5828 5827 5828 5828 5828 5828 5827 5827 5827 5827 5827 5827 5828 5828
5831 5830 5829 5831 5833 5832 5832 5832 5831 5831 5831 5831 5830 5830 5829 5829 5829 5829 5828 5828 5828 5828 5828 5828 5828 5828 5829 5830 5830 5831 5831 5831 5831 5830 5830 5830 5829 5829 5830 5831 5832 5832 5831 5831 5831 5831 5830 5830 5830 5830 5830 5830 5830 5830 5832 5833 5833 5833 5832 5830 5829 5829 5828 5828 5828 5828 5827 5827 5828 5827 5827 5827 5826 5826 5827 5827 5826 5826 5826 5825 5825 5826 5826 5826 5826
5827 5826 5827 5830 5830 5830 5830 5830 5829 5830 5829 5828 5828 5827 5827 5827 5827 5826 5826 5826 5826 5826 5826 5826 5826 5826 5827 5828 5828 5829 5829 5829 5829 5828 5828 5828 5828 5828 5828 5829 5830 5830 5830 5830 5830 5830 5829 5829 5829 5829 5829 5829 5829 5830 5831 5832 5832 5833 5832 5830 5829 5828 5828 5827 5827 5826 5826 5827 5827 5827 5826 5826 5826 5825 5825 5826 5825 5825 5824 5824 5824 5824 5824 5824 5825
5823 5822 5824 5826 5826 5827 5828 5827 5827 5827 5826 5826 5826 5825 5825 5824 5824 5824 5824 5824 5825 5825 5825 5825 5824 5824 5825 5826 5826 5827 5827 5827 5827 5826 5826 5826 5826 5826 5827 5827 5828 5828 5828 5828 5829 5828 5828 5828 5828 5828 5828 5828 5829 5829 5829 5830 5831 5832 5831 5829 5828 5828 5828 5827 5826 5825 5826 5827 5827 5826 5826 5825 5825 5824 5824 5824 5824 5823 5823 5822 5822 5822 5823 5823 5823
5824 5822 5823 5823 5822 5823 5824 5824 5825 5824 5824 5824 5823 5823 5821 5821 5821 5822 5823 5823 5823 5823 5823 5823 5823 5823 5823 5824 5824 5825 5825 5825 5825 5825 5824 5824 5825 5825 5825 5826 5826 5826 5827 5827 5827 5827 5827 5827 5827 5827 5827 5828 5828 5829 5829 5828 5829 5831 5830 5828 5827 5828 5827 5827 5826 5825 5825 5826 5825 5825 5824 5824 5824 5823 5823 5823 5823 5822 5821 5821 5821 5821 5822 5822 5822
5821 5821 5823 5823 5821 5820 5821 5822 5822 5822 5821 5821 5820 5819 5818 5819 5820 5821 5821 5821 5821 5821 5821 5821 5821 5821 5822 5822 5822 5823 5823 5824 5824 5823 5823 5823 5823 5823 5824 5825 5825 5825 5825 5825 5826 5826 5826 5825 5826 5826 5827 5827 5828 5829 5828 5827 5828 5829 5829 5827 5827 5827 5827 5826 5826 5825 5824 5824 5824 5823 5823 5823 5822 5822 5822 5822 5821 5820 5820 5819 5819 5820 5820 5821 5821
5818 5818 5820 5819 5817 5817 5818 5818 5819 5819 5818 5817 5817 5816 5816 5817 5819 5820 5820 5819 5819 5819 5819 5819 5819 5820 5821 5821 5821 5821 5821 5822 5822 5822 5822 5822 5822 5823 5823 5823 5823 5823 5823 5824 5824 5825 5824 5824 5825 5825 5826 5826 5828 5829 5827 5826 5826 5827 5827 5826 5826 5826 5826 5826 5825 5824 5824 5823 5823 5822 5822 5821 5821 5821 5821 5820 5820 5819 5818 5818 5818 5818 5819 5820 5820
5816 5816 5816 5816 5814 5813 5813 5814 5816 5816 5814 5813 5813 5813 5814 5817 5818 5818 5817 5818 5818 5818 5818 5818 5818 5819 5819 5820 5819 5819 5820 5820 5821 5821 5821 5821 5821 5821 5822 5822 5822 5822 5822 5822 5823 5823 5823 5823 5824 5824 5825 5826 5827 5828 5826 5825 5825 5826 5826 5826 5826 5825 5825 5825 5825 5824 5823 5822 5822 5821 5821 5820 5820 5820 5819 5818 5818 5817 5817 5816 5817 5817 5818 5819 5820
5813 5813 5813 5814 5814 5813 5812 5811 5811 5812 5811 5811 5811 5811 5813 5815 5815 5814 5815 5816 5816 5816 5817 5817 5817 5818 5818 5818 5817 5817 5818 5819 5820 5820 5820 5819 5819 5820 5820 5820 5820 5820 5821 5821 5822 5822 5821 5822 5822 5823 5825 5826 5826 5826 5825 5824 5825 5825 5824 5825 5825 5825 5824 5824 5823 5822 5822 5821 5820 5820 5819 5819 5819 5818 5818 5817 5816 5816 5815 5815 5816 5816 5817 5818 5818
5811 5810 5810 5811 5812 5812 5811 5808 5806 5807 5808 5809 5810 5811 5811 5812 5811 5811 5812 5813 5813 5814 5815 5815 5816 5816 5816 5816 5816 5816 5817 5817 5818 5818 5818 5818 5818 5818 5818 5818 5819 5819 5820 5821 5821 5820 5820 5821 5821 5822 5824 5825 5825 5824 5823 5824 5825 5824 5823 5824 5825 5824 5824 5823 5822 5821 5821 5820 5820 5819 5818 5818 5818 5817 5817 5816 5815 5815 5815 5815 5815 5815 5816 5817 5817
5808 5807 5807 5808 5809 5808 5806 5805 5804 5804 5806 5807 5808 5808 5807 5807 5808 5808 5809 5810 5811 5811 5813 5814 5814 5814 5814 5814 5814 5815 5816 5816 5816 5816 5816 5817 5817 5817 5817 5817 5817 5818 5819 5820 5820 5819 5819 5820 5821 5821 5823 5825 5824 5823 5823 5824 5824 5823 5823 5824 5824 5824 5823 5823 5822 5821 5820 5820 5819 5818 5818 5817 5816 5816 5816 5815 5814 5814 5814 5814 5815 5815 5815 5816 5816
5805 5804 5804 5804 5803 5803 5803 5804 5803 5803 5804 5803 5802 5803 5803 5805 5806 5807 5807 5808 5808 5809 5810 5811 5812 5812 5812 5812 5813 5813 5814 5814 5814 5815 5815 5816 5816 5816 5816 5816 5816 5817 5818 5819 5818 5817 5818 5820 5820 5821 5822 5823 5823 5823 5823 5824 5824 5822 5822 5823 5823 5823 5823 5822 5821 5820 5819 5819 5818 5818 5817 5816 5815 5815 5815 5814 5814 5813 5814 5814 5814 5814 5814 5815 5815
5802 5802 5801 5800 5800 5801 5802 5802 5801 5800 5800 5799 5798 5800 5802 5803 5805 5805 5806 5807 5806 5806 5807 5808 5809 5809 5810 5810 5811 5812 5812 5812 5812 5813 5814 5814 5814 5814 5814 5814 5815 5815 5817 5818 5817 5816 5817 5819 5819 5820 5821 5822 5822 5822 5823 5823 5823 5822 5821 5822 5822 5822 5822 5821 5820 5819 5819 5818 5818 5817 5817 5816 5815 5814 5814 5814 5813 5813 5813 5814 5814 5814 5814 5814 5815
5799 5798 5798 5798 5798 5799 5800 5799 5797 5797 5797 5796 5796 5799 5800 5800 5801 5802 5803 5804 5804 5804 5804 5805 5806 5807 5808 5809 5810 5810 5810 5810 5811 5811 5812 5813 5813 5813 5813 5813 5814 5815 5816 5817 5816 5814 5816 5817 5817 5818 5819 5819 5820 5821 5822 5822 5822 5821 5821 5821 5821 5821 5821 5820 5819 5819 5818 5818 5817 5817 5816 5816 5815 5814 5814 5813 5813 5813 5813 5813 5813 5813 5814 5814 5815
5796 5795 5794 5796 5796 5796 5797 5795 5795 5795 5794 5793 5794 5796 5797 5797 5797 5799 5800 5801 5803 5803 5802 5803 5804 5805 5806 5807 5808 5809 5808 5809 5809 5810 5810 5811 5811 5811 5811 5812 5813 5814 5815 5815 5814 5813 5815 5815 5815 5816 5817 5818 5819 5820 5820 5821 5820 5820 5820 5820 5820 5820 5820 5819 5819 5818 5818 5817 5817 5816 5816 5815 5815 5814 5814 5813 5813 5813 5813 5813 5813 5813 5813 5814 5814
5794 5792 5792 5793 5794 5794 5794 5792 5792 5791 5790 5790 5791 5793 5795 5795 5796 5797 5798 5800 5801 5801 5801 5802 5803 5804 5804 5805 5806 5807 5807 5807 5808 5808 5809 5809 5809 5809 5810 5811 5812 5812 5813 5813 5813 5812 5813 5814 5814 5815 5816 5817 5817 5818 5819 5819 5819 5819 5819 5819 5820 5820 5819 5819 5818 5818 5818 5817 5817 5816 5816 5815 5814 5814 5814 5813 5813 5813 5813 5813 5813 5813 5813 5814 5814
5792 5790 5789 5790 5790 5790 5789 5788 5788 5787 5787 5788 5787 5789 5792 5793 5794 5794 5796 5797 5798 5799 5799 5801 5802 5802 5803 5804 5805 5805 5805 5806 5806 5807 5807 5808 5808 5807 5808 5809 5809 5811 5811 5812 5812 5811 5811 5812 5812 5813 5814 5815 5816 5816 5817 5818 5818 5818 5818 5818 5819 5819 5819 5818 5818 5818 5818 5817 5816 5816 5815 5814 5814 5814 5814 5814 5813 5813 5813 5813 5813 5813 5814 5814 5814
5790 5788 5787 5787 5786 5786 5787 5787 5784 5784 5785 5785 5785 5787 5789 5790 5791 5792 5793 5794 5796 5797 5798 5799 5799 5800 5801 5802 5803 5804 5804 5805 5805 5805 5806 5806 5806 5806 5807 5807 5807 5809 5810 5811 5811 5810 5810 5810 5810 5811 5812 5813 5814 5814 5815 5816 5817 5818 5817 5817 5818 5818 5818 5818 5818 5818 5817 5817 5816 5815 5814 5813 5813 5813 5813 5813 5813 5813 5813 5812 5813 5813 5814 5814 5814
5787 5786 5785 5785 5783 5781 5783 5784 5783 5784 5785 5784 5784 5785 5786 5787 5788 5790 5791 5792 5793 5795 5796 5797 5797 5798 5799 5800 5802 5802 5803 5803 5804 5804 5804 5804 5805 5805 5806 5806 5807 5807 5808 5810 5811 5809 5808 5808 5808 5809 5810 5811 5812 5813 5814 5815 5816 5817 5817 5817 5817 5817 5817 5817 5817 5817 5816 5816 5815 5815 5814 5813 5813 5813 5813 5813 5813 5813 5812 5812 5813 5813 5813 5813 5814
5783 5784 5783 5783 5781 5778 5778 5780 5783 5785 5785 5784 5783 5783 5784 5785 5786 5788 5790 5791 5791 5792 5793 5794 5795 5796 5798 5799 5799 5800 5801 5801 5802 5802 5802 5803 5803 5804 5805 5805 5806 5807 5808 5809 5809 5808 5808 5808 5808 5808 5809 5810 5811 5812 5813 5814 5815 5815 5815 5815 5815 5815 5816 5816 5816 5816 5815 5815 5815 5815 5814 5814 5813 5813 5813 5813 5812 5812 5812 5812 5812 5812 5813 5813 5813
5780 5781 5780 5779 5778 5777 5776 5777 5782 5785 5783 5783 5783 5782 5783 5784 5784 5786 5787 5788 5789 5789 5791 5792 5793 5794 5796 5797 5797 5798 5799 5800 5800 5800 5801 5801 5801 5802 5803 5804 5804 5805 5806 5807 5808 5807 5806 5806 5807 5808 5808 5809 5810 5811 5811 5812 5813 5813 5813 5814 5814 5814 5814 5815 5815 5814 5814 5814 5814 5814 5814 5814 5813 5813 5813 5813 5812 5812 5812 5812 5812 5812 5812 5812 5813
5776 5777 5777 5777 5778 5778 5775 5775 5780 5783 5782 5781 5781 5781 5782 5782 5783 5784 5784 5785 5786 5787 5788 5789 5790 5791 5793 5795 5795 5796 5797 5798 5798 5798 5799 5799 5799 5799 5800 5802 5803 5803 5803 5805 5806 5806 5805 5805 5806 5807 5808 5809 5809 5810 5810 5811 5811 5812 5812 5812 5812 5812 5813 5813 5813 5813 5813 5813 5813 5813 5813 5813 5813 5813 5813 5813 5812 5812 5812 5812 5812 5812 5812 5812 5812
5773 5774 5775 5776 5776 5776 5773 5771 5775 5780 5779 5779 5780 5780 5780 5781 5781 5782 5782 5783 5784 5785 5786 5787 5787 5788 5790 5791 5792 5793 5794 5795 5795 5795 5796 5797 5797 5798 5799 5800 5802 5803 5802 5802 5803 5804 5804 5804 5805 5806 5807 5808 5808 5809 5809 5809 5810 5810 5810 5810 5811 5811 5812 5812 5812 5811 5812 5812 5812 5813 5813 5813 5813 5813 5813 5813 5812 5812 5812 5811 5811 5811 5811 5811 5811
5771 5771 5772 5774 5773 5773 5771 5769 5771 5776 5778 5777 5777 5778 5778 5778 5779 5779 5780 5780 5781 5782 5783 5784 5784 5785 5786 5787 5788 5790 5791 5792 5793 5793 5793 5795 5795 5796 5798 5799 5800 5802 5801 5801 5802 5802 5802 5803 5804 5804 5805 5806 5807 5807 5808 5808 5808 5808 5808 5809 5810 5810 5810 5810 5810 5810 5811 5811 5812 5812 5812 5813 5813 5812 5812 5812 5812 5811 5811 5811 5811 5811 5810 5810 5811
5769 5770 5770 5771 5771 5770 5769 5767 5769 5773 5776 5776 5775 5775 5775 5776 5776 5777 5777 5777 5778 5779 5780 5781 5781 5782 5783 5784 5785 5787 5788 5789 5790 5791 5791 5792 5793 5794 5796 5797 5798 5799 5799 5799 5800 5800 5801 5802 5802 5803 5804 5805 5805 5805 5806 5806 5806 5806 5807 5808 5808 5809 5809 5809 5809 5809 5810 5810 5811 5811 5811 5812 5812 5812 5811 5811 5811 5810 5810 5810 5810 5810 5810 5810 5810
5768 5768 5768 5769 5769 5768 5767 5766 5767 5770 5774 5774 5773 5773 5772 5773 5773 5774 5774 5774 5775 5775 5777 5777 5778 5779 5780 5781 5782 5784 5785 5786 5788 5789 5790 5790 5791 5792 5793 5794 5795 5796 5797 5798 5798 5798 5799 5800 5801 5802 5803 5803 5804 5804 5804 5804 5805 5805 5805 5806 5807 5807 5807 5808 5808 5808 5808 5809 5809 5810 5810 5811 5811 5811 5810 5810 5810 5809 5809 5809 5809 5809 5809 5809 5809
5765 5766 5766 5766 5766 5766 5766 5765 5765 5768 5770 5771 5770 5770 5770 5770 5770 5771 5772 5772 5772 5772 5773 5774 5775 5776 5776 5777 5779 5781 5782 5783 5785 5786 5788 5788 5789 5790 5790 5792 5793 5794 5795 5796 5796 5797 5798 5798 5799 5800 5801 5802 5802 5802 5802 5803 5803 5803 5804 5804 5805 5805 5805 5806 5806 5807 5807 5807 5808 5808 5809 5810 5810 5810 5810 5809 5809 5808 5809 5809 5808 5808 5808 5808 5808